Wind_Speed
65 66 58 57 56 57 58 59 64 70 74 87 94 92 87 80 73 71 68 64 60 57 56 56 56 55 54 52 51 49 49 48 48 49 50 49 48 47 45 44 45 45 49 51 48 41 39 42 45 45 43 43 41 39
57 53 54 54 55 55 53 48 45 47 51 59 73 92 95 90 83 79 76 70 65 60 58 59 57 54 54 54 54 53 49 49 49 52 53 53 52 50 45 46 47 46 44 47 50 51 47 45 45 42 41 43 42 42
49 53 53 52 52 51 47 39 33 33 36 42 52 68 89 94 92 87 83 77 72 67 63 61 60 57 58 58 56 54 52 53 52 54 57 57 58 56 52 49 51 50 48 46 48 49 49 49 49 48 43 43 44 45
48 48 48 51 50 47 43 33 26 25 26 30 38 50 65 86 92 94 90 84 79 73 70 68 64 60 58 56 54 52 51 52 55 58 59 61 62 61 59 58 58 58 56 54 53 51 50 51 52 53 49 43 44 45
43 47 49 49 50 47 43 33 23 18 17 21 28 36 49 63 83 91 93 90 85 80 76 73 70 66 63 61 60 59 57 56 55 57 60 64 66 66 66 65 66 68 65 64 63 59 56 56 57 57 54 51 47 46
40 46 50 53 53 50 44 36 25 16 10 12 19 27 35 47 62 81 91 89 89 86 82 78 74 71 68 67 66 64 64 62 62 63 63 65 68 66 67 68 74 76 75 74 72 71 68 64 62 61 60 59 55 51
40 46 51 55 55 53 47 39 32 21 12 6 10 16 24 33 45 59 75 86 84 83 83 80 78 76 74 73 71 70 70 70 70 70 71 71 73 71 72 75 83 85 84 83 82 80 77 74 70 68 67 65 62 59
41 47 50 53 54 54 49 38 32 29 19 10 2 7 14 22 31 41 52 67 79 80 77 76 75 73 73 72 72 72 73 73 73 74 76 77 77 76 76 85 87 87 85 84 85 84 85 84 79 75 75 73 70 67
40 44 48 49 50 50 48 40 30 28 26 19 11 5 6 13 20 28 36 46 58 71 74 73 71 69 68 68 68 67 68 68 68 69 71 72 74 74 77 79 81 87 89 91 90 90 92 92 88 84 83 82 79 74
42 43 44 45 46 44 45 37 29 24 24 24 20 15 11 10 12 17 22 29 38 52 63 65 66 66 65 63 61 59 59 59 60 61 62 64 67 68 70 73 77 82 84 86 87 87 90 92 92 89 89 89 89 83
40 40 41 40 43 41 41 33 28 21 20 22 23 24 22 18 16 16 18 22 29 37 45 49 51 51 52 52 52 52 52 53 55 55 56 58 57 56 57 59 63 68 71 72 75 79 83 89 95 93 90 88 94 93
43 37 36 37 35 34 35 31 26 23 17 17 18 19 19 19 18 16 16 19 23 28 31 34 35 36 37 38 38 39 39 37 35 32 31 32 33 35 38 41 45 49 55 59 63 67 70 74 83 91 94 91 93 99
49 36 35 30 23 23 27 31 33 29 23 19 18 18 16 14 13 11 9 9 12 15 18 20 21 23 24 22 18 13 11 9 8 9 10 11 11 11 11 15 24 33 38 41 45 51 57 61 63 72 84 87 94 98
46 35 31 21 13 14 20 23 30 33 30 29 28 27 24 22 23 25 25 23 20 17 15 14 14 16 19 18 17 17 14 12 9 8 7 5 11 10 10 11 11 6 10 17 23 32 39 44 50 55 68 76 82 92
39 30 24 15 11 12 16 18 22 28 28 27 25 24 27 28 35 41 38 38 39 39 38 35 33 31 32 34 30 26 25 24 22 21 17 15 17 19 19 19 17 16 17 17 18 17 22 28 35 42 52 61 70 84
35 27 21 14 12 12 14 16 19 21 25 27 24 20 26 41 39 38 35 37 41 39 39 36 35 32 30 28 26 24 23 21 21 22 23 25 26 25 26 26 26 26 24 23 22 21 19 19 25 31 38 49 62 75
34 27 21 16 14 12 12 13 15 17 19 24 24 25 34 38 37 30 32 40 38 35 33 31 31 30 28 25 23 20 21 23 27 31 29 27 27 31 33 31 29 28 27 27 25 21 22 20 19 25 33 42 54 68
42 35 27 20 16 13 12 11 12 14 20 23 26 28 35 33 29 29 37 34 31 31 29 28 26 25 23 24 24 23 29 28 28 28 27 31 31 29 26 26 24 24 26 28 32 33 28 20 21 20 26 34 45 58
45 42 33 26 23 19 15 16 16 18 19 22 27 27 36 30 29 30 32 27 26 27 25 24 23 22 23 23 23 24 26 28 25 26 25 23 26 28 29 29 31 28 24 29 40 31 20 20 26 20 20 24 38 51
41 40 38 38 40 38 39 35 32 30 25 27 32 30 32 27 25 27 27 24 22 19 19 18 19 20 21 21 20 19 20 19 19 20 21 23 32 36 37 36 38 38 41 43 44 43 31 22 17 35 17 22 29 42
36 37 39 41 40 39 35 32 30 27 25 25 28 27 28 22 19 22 19 19 16 15 15 16 17 17 18 17 16 15 13 14 11 16 20 22 25 25 30 27 32 35 36 41 41 43 44 38 33 29 23 19 28 34
27 27 31 35 38 37 35 34 31 29 25 22 21 24 25 22 19 17 16 17 16 12 11 11 11 14 14 10 12 12 8 4 12 16 16 12 12 19 20 24 23 27 35 39 44 48 49 46 44 32 18 13 19 25
20 23 24 26 28 27 26 29 28 30 29 25 24 20 15 14 9 11 9 9 13 12 5 6 7 8 10 6 4 5 6 4 2 6 8 9 8 11 12 16 18 22 31 32 38 43 47 51 51 46 29 13 7 11
19 20 22 21 23 21 18 18 21 21 22 23 21 16 10 8 11 14 9 11 8 10 12 10 7 7 8 10 7 6 4 3 4 3 5 4 8 9 17 10 12 16 22 26 30 36 42 47 46 44 44 29 11 2
17 19 18 17 17 18 19 18 17 15 16 16 16 13 13 9 3 8 2 7 15 20 20 15 17 17 14 13 13 13 12 8 13 10 6 4 5 6 11 15 17 9 16 26 22 29 33 38 37 37 43 45 40 27
13 13 12 12 13 12 13 14 14 13 12 10 8 9 9 11 11 9 9 10 8 8 16 22 22 22 27 25 20 21 22 20 17 17 15 10 11 11 13 14 15 17 17 21 10 17 23 26 29 32 34 36 37 39
12 13 13 12 13 15 17 18 18 18 17 16 16 16 15 15 13 12 13 13 16 16 12 12 16 21 23 26 27 30 29 28 25 22 22 21 19 18 21 18 16 14 14 19 17 4 13 14 15 19 22 24 31 31
16 15 14 14 16 17 18 19 18 21 21 21 22 24 24 24 25 24 24 23 21 20 19 20 18 14 16 20 27 31 32 35 38 34 29 27 28 25 25 24 23 21 16 14 13 14 8 4 10 7 8 12 17 18
15 16 15 15 16 19 20 18 16 19 26 33 30 27 23 21 20 18 18 19 21 22 24 26 27 25 24 23 20 20 28 31 34 36 34 31 31 34 35 32 30 28 27 23 20 17 12 10 10 8 6 1 6 14
16 18 19 21 20 20 19 21 21 21 27 34 36 30 25 22 21 20 18 17 15 16 17 17 19 22 25 25 23 23 23 26 32 35 36 37 36 38 43 41 38 38 32 30 28 27 24 19 17 15 15 12 6 6
16 17 18 18 23 21 22 25 27 29 33 39 36 23 22 25 23 22 21 20 18 18 18 18 17 15 16 19 20 21 22 24 25 28 31 35 38 40 41 43 46 48 44 41 38 37 35 32 27 25 23 21 17 14
16 17 17 18 14 19 19 27 31 33 34 35 25 26 27 25 25 25 22 20 20 20 20 20 18 17 16 17 18 18 17 17 20 23 27 29 29 31 37 40 45 47 51 55 48 50 45 45 41 37 35 34 30 27
18 20 21 22 20 19 18 20 24 26 24 21 23 24 24 25 23 22 23 24 23 22 20 19 19 20 20 20 19 19 19 18 18 19 21 22 23 25 25 27 34 42 48 53 58 60 61 53 56 51 47 43 43 40
Wind_Direction
312 310 307 304 302 296 292 282 271 264 257 248 242 237 236 235 234 234 235 235 234 232 231 231 232 234 236 238 237 236 232 229 230 235 239 239 239 237 236 238 239 234 234 240 239 233 238 240 243 238 237 235 235 236
319 319 319 317 316 311 307 296 282 270 260 249 241 236 233 232 230 231 233 233 233 232 232 233 232 231 233 235 237 238 237 235 232 235 237 238 239 239 233 236 239 239 236 237 241 244 234 234 242 240 238 234 234 232
327 328 328 328 326 323 320 309 293 277 263 250 240 234 232 230 229 228 230 230 230 230 231 233 234 234 236 237 240 241 239 237 236 235 234 235 238 242 242 240 241 243 243 241 240 241 245 242 242 244 235 236 232 228
334 338 339 339 338 335 334 324 306 287 269 251 240 233 230 228 227 227 228 228 229 230 230 232 234 235 237 238 239 240 241 239 237 237 238 238 238 240 244 246 246 246 246 247 245 242 242 245 245 243 239 235 235 230
343 351 354 352 351 349 347 341 327 307 277 252 239 232 227 226 225 226 227 227 228 229 230 233 234 235 237 240 242 241 240 240 240 239 240 242 243 243 244 246 248 250 249 248 248 246 242 240 239 242 239 233 232 232
351 355 360 2 1 358 355 355 351 339 304 257 237 229 226 223 222 223 226 227 228 229 231 232 234 236 238 240 242 244 246 245 245 244 244 244 245 246 247 248 249 251 251 251 250 249 246 241 239 238 238 235 231 229
354 357 357 359 4 2 1 0 5 5 352 300 243 228 223 221 220 220 222 225 226 228 230 233 236 238 240 244 245 246 247 248 249 250 249 249 250 250 250 250 251 250 249 250 252 252 251 248 243 237 237 237 231 228
353 354 353 354 359 4 3 4 9 17 18 14 319 222 217 215 214 217 219 221 224 226 229 232 235 239 241 245 247 249 251 253 253 254 254 253 253 253 252 250 251 254 255 254 254 254 254 253 248 240 237 234 233 227
352 352 352 351 354 3 4 6 12 22 27 34 49 89 168 191 202 209 213 216 218 220 225 229 233 236 240 244 248 251 253 255 255 255 256 256 255 254 254 255 254 254 251 250 249 247 247 247 244 241 236 233 232 229
349 349 354 356 354 1 8 8 14 25 37 42 52 69 97 135 167 186 196 203 207 212 218 225 231 236 241 245 248 251 253 255 257 258 258 258 257 256 253 253 255 255 254 252 249 246 246 247 245 238 232 230 227 226
348 348 354 355 354 357 8 14 20 30 45 54 60 68 79 93 113 139 159 175 187 198 208 219 227 234 239 244 249 253 257 258 260 261 261 259 258 257 255 252 252 252 254 254 252 251 247 245 246 242 236 228 224 223
357 350 350 350 347 354 4 19 31 38 53 65 71 76 81 88 98 115 137 160 179 194 207 218 226 233 240 247 253 257 260 260 259 258 256 255 255 256 256 258 258 260 260 260 259 256 253 246 241 241 238 231 224 221
353 350 348 344 346 358 8 25 41 51 62 71 74 76 84 91 106 124 140 167 191 206 215 223 233 244 248 247 246 244 238 234 228 227 239 241 248 277 280 276 270 272 274 273 269 265 261 256 247 240 239 233 225 221
350 350 348 354 4 18 30 30 41 52 60 69 81 87 86 83 81 85 92 97 104 119 136 150 154 141 130 126 118 107 98 101 116 116 119 156 134 112 78 48 33 349 311 287 272 267 266 263 255 243 236 232 224 219
356 355 5 20 37 49 53 54 49 50 61 67 72 82 86 87 99 99 99 101 105 107 108 109 108 106 102 95 90 84 76 73 81 82 86 73 43 33 30 23 18 7 356 341 324 301 272 261 253 245 237 231 223 216
4 5 20 42 62 71 62 66 68 65 61 55 58 69 95 111 101 102 109 114 107 101 99 100 101 100 89 81 76 72 64 59 52 45 47 47 43 35 28 25 19 7 356 345 339 324 305 279 255 242 234 228 221 215
22 25 36 56 74 80 76 68 72 77 66 58 67 78 119 109 106 112 116 107 102 100 100 99 94 86 81 79 76 71 72 68 73 69 62 59 50 41 32 26 25 23 23 16 2 338 318 299 273 247 234 227 224 215
29 38 45 54 70 74 73 73 68 80 73 66 82 91 129 104 96 113 114 106 101 102 96 91 87 85 75 79 84 84 87 85 79 74 67 63 53 46 43 35 13 1 15 26 28 30 24 356 314 286 249 234 225 220
32 40 46 54 60 61 64 62 66 81 84 75 99 106 125 103 95 112 116 102 101 99 95 97 90 85 84 87 86 89 84 76 73 84 70 58 56 64 58 51 51 49 36 49 51 38 7 23 31 345 284 248 233 224
40 47 55 64 73 76 75 76 78 80 83 99 105 111 135 109 105 111 117 103 111 96 101 97 89 96 91 92 90 75 79 83 88 68 53 77 88 77 69 64 60 51 49 47 50 48 47 37 14 9 308 261 241 231
45 46 58 62 60 58 61 72 81 87 91 109 108 114 138 121 113 120 118 119 122 107 107 101 103 102 100 90 75 98 101 86 79 62 90 85 73 60 62 63 56 53 52 49 53 51 48 45 36 21 347 275 255 241
36 46 50 49 51 49 45 51 55 59 72 80 106 125 143 138 126 114 129 133 132 122 128 117 111 128 120 102 71 69 85 75 93 62 101 84 62 67 56 53 60 59 54 57 59 55 50 47 46 32 351 307 261 254
34 41 46 44 41 35 32 43 52 57 65 67 76 92 119 148 154 151 139 158 173 174 164 156 150 152 162 145 101 80 87 140 2 335 27 26 73 56 33 48 57 62 43 47 56 52 47 46 41 36 26 355 296 242
42 49 46 35 36 40 37 39 38 52 50 50 47 55 86 163 192 206 222 236 242 212 213 205 205 218 209 199 221 241 198 218 210 285 318 79 340 13 14 17 45 70 48 52 61 56 53 47 40 39 44 44 39 135
27 33 37 39 36 35 40 48 42 33 28 38 41 31 20 53 109 227 247 263 257 261 263 242 243 227 234 249 252 249 237 238 222 236 253 284 297 298 355 355 4 30 35 21 34 47 43 40 38 44 48 45 49 59
360 359 359 360 3 6 6 11 15 9 3 356 351 349 350 353 10 14 1 347 329 288 268 270 276 268 251 238 240 246 249 241 236 247 245 256 280 258 293 316 341 346 337 349 4 52 42 48 48 33 36 51 55 55
332 336 336 339 344 343 347 348 346 339 334 332 326 323 324 327 334 331 324 316 312 315 309 304 286 278 271 258 250 246 251 254 252 250 252 253 256 261 281 294 300 316 310 325 339 12 4 3 56 57 46 43 46 52
316 323 328 334 333 338 343 345 348 351 347 340 329 325 322 316 309 303 298 294 292 294 292 293 296 293 284 278 269 265 262 260 254 258 261 256 252 259 262 267 284 291 297 288 298 323 314 67 11 50 61 70 58 61
316 315 317 323 333 337 345 347 359 11 7 358 348 346 344 341 336 328 315 306 298 290 286 285 285 285 283 281 285 278 265 260 258 259 257 250 252 262 264 267 266 271 278 284 273 274 298 269 299 311 309 5 93 117
306 310 315 317 323 337 343 342 345 345 358 353 353 355 353 352 352 354 350 351 347 333 325 315 303 294 289 286 282 277 276 273 267 262 258 256 253 256 257 254 256 260 263 267 264 269 272 271 274 275 276 274 275 169
298 300 311 316 330 338 338 338 342 351 351 342 350 356 358 347 347 349 350 350 347 343 339 336 342 338 320 302 298 290 284 281 278 274 267 261 261 258 255 254 251 249 254 252 252 257 260 263 266 253 250 260 260 237
299 301 302 304 287 299 323 337 337 340 339 338 346 353 358 353 352 350 349 351 354 355 354 355 350 346 343 340 342 339 335 320 307 297 289 285 279 271 265 259 254 252 247 248 255 244 253 251 250 253 249 242 247 250
293 286 287 290 304 317 326 328 323 326 335 339 348 352 352 350 347 352 359 5 13 20 21 21 18 14 13 9 8 4 1 355 346 336 328 322 317 305 291 276 266 261 257 254 250 249 249 255 245 241 242 241 240 243
Height
10607 10594 10581 10569 10558 10547 10535 10523 10515 10514 10520 10530 10545 10563 10576 10593 10607 10614 10620 10630 10640 10651 10660 10666 10672 10681 10688 10693 10698 10705 10714 10722 10726 10729 10732 10737 10741 10746 10751 10754 10756 10762 10767 10771 10776 10784 10788 10789 10790 10800 10808 10815 10821 10826
10586 10575 10562 10549 10536 10521 10507 10494 10488 10485 10487 10493 10504 10523 10541 10561 10578 10589 10597 10611 10623 10633 10644 10649 10658 10667 10673 10677 10683 10692 10702 10708 10715 10718 10720 10724 10728 10733 10740 10743 10745 10749 10757 10760 10766 10769 10777 10779 10783 10791 10799 10804 10809 10816
10574 10562 10548 10534 10519 10503 10488 10476 10469 10466 10466 10469 10478 10490 10507 10528 10549 10563 10574 10590 10602 10616 10626 10633 10640 10651 10657 10663 10671 10678 10687 10693 10698 10702 10707 10711 10716 10720 10726 10732 10733 10738 10743 10749 10754 10759 10764 10770 10776 10780 10787 10791 10797 10803
10566 10552 10539 10524 10508 10492 10477 10465 10457 10453 10452 10455 10460 10469 10481 10500 10520 10537 10551 10566 10582 10596 10606 10615 10626 10635 10643 10650 10657 10665 10672 10678 10683 10688 10692 10697 10702 10707 10712 10717 10718 10721 10729 10733 10737 10745 10753 10758 10762 10766 10776 10783 10786 10792
10559 10546 10533 10518 10501 10486 10471 10459 10450 10445 10443 10444 10448 10455 10464 10477 10494 10512 10528 10544 10562 10576 10589 10599 10609 10620 10628 10636 10642 10649 10656 10661 10667 10673 10678 10681 10685 10690 10696 10701 10702 10700 10709 10714 10718 10726 10735 10741 10746 10752 10761 10769 10775 10779
10554 10542 10529 10515 10500 10485 10471 10459 10449 10442 10439 10438 10440 10445 10452 10461 10473 10489 10507 10524 10542 10557 10569 10582 10594 10604 10613 10618 10626 10633 10638 10646 10652 10658 10663 10665 10666 10674 10679 10684 10680 10681 10685 10691 10697 10703 10712 10721 10730 10738 10744 10752 10760 10765
10551 10540 10527 10514 10501 10487 10474 10462 10451 10443 10438 10436 10437 10440 10445 10452 10461 10472 10488 10505 10523 10539 10553 10567 10577 10587 10596 10602 10610 10617 10622 10627 10633 10637 10642 10647 10650 10660 10662 10661 10650 10651 10660 10667 10674 10683 10692 10701 10713 10723 10728 10734 10744 10752
10549 10538 10527 10515 10503 10491 10478 10466 10457 10447 10441 10438 10437 10439 10442 10448 10455 10464 10476 10490 10508 10526 10540 10553 10562 10573 10579 10586 10592 10598 10603 10608 10613 10617 10621 10624 10628 10633 10638 10625 10629 10636 10645 10650 10656 10664 10667 10675 10692 10704 10710 10717 10724 10735
10548 10538 10528 10517 10506 10495 10484 10472 10463 10455 10448 10444 10441 10441 10443 10447 10454 10461 10471 10481 10495 10513 10526 10537 10549 10557 10566 10571 10576 10582 10586 10590 10592 10595 10597 10599 10601 10607 10606 10610 10609 10605 10608 10613 10620 10627 10629 10637 10654 10670 10682 10694 10705 10714
10548 10538 10529 10519 10508 10499 10490 10479 10470 10464 10458 10454 10450 10448 10449 10451 10456 10462 10469 10478 10489 10501 10516 10528 10538 10546 10553 10559 10563 10568 10570 10572 10573 10574 10576 10576 10577 10578 10580 10581 10580 10576 10580 10584 10590 10597 10601 10607 10614 10628 10644 10661 10675 10689
10546 10537 10529 10520 10511 10502 10495 10486 10477 10470 10466 10463 10460 10458 10458 10459 10462 10466 10472 10480 10489 10500 10512 10521 10530 10536 10542 10547 10551 10554 10555 10554 10555 10555 10555 10554 10555 10557 10558 10558 10557 10553 10553 10557 10561 10565 10573 10581 10584 10594 10612 10629 10643 10657
10545 10536 10528 10521 10514 10507 10500 10492 10484 10477 10472 10471 10469 10469 10469 10471 10473 10477 10481 10487 10494 10502 10509 10517 10524 10530 10534 10538 10540 10540 10541 10541 10540 10541 10540 10540 10541 10542 10542 10543 10542 10541 10538 10538 10538 10538 10540 10546 10552 10558 10573 10594 10611 10624
10543 10533 10525 10519 10513 10510 10505 10499 10491 10484 10480 10478 10478 10479 10479 10480 10482 10485 10489 10493 10498 10503 10509 10514 10520 10525 10527 10530 10532 10534 10534 10535 10534 10534 10535 10536 10536 10537 10537 10536 10533 10529 10526 10523 10521 10520 10519 10519 10526 10532 10538 10553 10574 10592
10539 10529 10521 10515 10512 10512 10510 10505 10501 10496 10492 10490 10488 10488 10488 10489 10491 10493 10494 10496 10498 10501 10505 10511 10517 10521 10525 10529 10532 10534 10536 10535 10535 10535 10535 10535 10535 10533 10529 10526 10524 10521 10517 10513 10509 10505 10502 10503 10504 10507 10513 10521 10539 10561
10534 10526 10520 10515 10514 10514 10514 10512 10509 10507 10504 10502 10501 10500 10501 10502 10503 10505 10506 10508 10510 10512 10516 10520 10525 10529 10533 10535 10537 10538 10538 10537 10536 10536 10535 10535 10532 10529 10526 10522 10517 10513 10508 10503 10498 10493 10488 10487 10486 10488 10494 10502 10516 10532
10533 10526 10521 10518 10517 10517 10517 10517 10517 10515 10514 10513 10512 10512 10512 10514 10515 10516 10518 10520 10523 10526 10529 10532 10535 10537 10538 10538 10539 10539 10539 10540 10539 10537 10535 10534 10532 10529 10525 10519 10513 10508 10503 10497 10491 10485 10480 10478 10476 10477 10481 10487 10496 10510
10537 10530 10526 10523 10523 10523 10523 10522 10522 10523 10523 10522 10520 10521 10522 10524 10525 10526 10529 10533 10535 10536 10538 10540 10541 10542 10542 10543 10543 10543 10543 10542 10540 10539 10537 10536 10533 10528 10524 10519 10514 10509 10501 10494 10487 10482 10476 10472 10471 10470 10472 10475 10482 10491
10545 10537 10533 10531 10530 10530 10529 10528 10528 10529 10530 10530 10529 10529 10531 10534 10536 10538 10540 10542 10543 10544 10546 10547 10548 10549 10548 10548 10548 10548 10547 10545 10544 10542 10539 10535 10532 10531 10527 10522 10516 10509 10501 10494 10487 10480 10473 10469 10466 10466 10467 10470 10474 10480
10560 10550 10544 10541 10538 10538 10537 10535 10535 10535 10537 10537 10537 10538 10541 10544 10545 10547 10548 10550 10551 10552 10553 10554 10554 10554 10554 10553 10553 10553 10551 10548 10547 10544 10541 10538 10538 10534 10529 10524 10519 10512 10505 10495 10486 10479 10472 10466 10462 10461 10459 10461 10463 10467
10573 10566 10561 10556 10553 10549 10546 10545 10544 10544 10544 10544 10545 10547 10550 10552 10554 10555 10557 10558 10559 10560 10560 10560 10560 10560 10559 10558 10557 10556 10554 10552 10549 10548 10545 10542 10540 10537 10533 10528 10522 10517 10507 10498 10489 10483 10473 10465 10459 10458 10455 10454 10454 10456
10585 10581 10577 10572 10567 10564 10561 10558 10556 10554 10553 10553 10554 10555 10558 10560 10561 10562 10563 10564 10564 10565 10565 10565 10565 10565 10564 10563 10561 10559 10557 10555 10553 10551 10548 10547 10544 10541 10535 10530 10524 10518 10512 10504 10494 10484 10477 10467 10462 10457 10455 10448 10446 10447
10596 10592 10587 10582 10578 10577 10577 10572 10568 10565 10563 10561 10561 10561 10563 10565 10566 10566 10566 10567 10568 10568 10568 10568 10568 10567 10566 10565 10564 10563 10562 10559 10557 10555 10552 10548 10545 10541 10536 10532 10525 10520 10514 10508 10498 10488 10481 10471 10467 10461 10451 10443 10439 10440
10604 10600 10596 10592 10589 10586 10585 10583 10580 10577 10575 10573 10570 10569 10570 10570 10571 10570 10569 10569 10569 10569 10569 10569 10569 10568 10567 10565 10564 10563 10562 10561 10559 10556 10554 10551 10548 10544 10538 10532 10526 10521 10515 10508 10502 10494 10486 10477 10471 10465 10454 10443 10438 10437
10610 10606 10601 10599 10597 10595 10592 10589 10588 10585 10583 10580 10579 10577 10574 10571 10570 10570 10570 10570 10571 10571 10570 10570 10569 10568 10566 10566 10563 10560 10560 10558 10556 10555 10553 10552 10549 10544 10540 10535 10529 10521 10515 10508 10503 10497 10490 10483 10479 10472 10460 10452 10445 10443
10614 10611 10608 10606 10604 10601 10598 10595 10593 10590 10588 10585 10582 10580 10578 10575 10572 10570 10569 10568 10567 10567 10566 10565 10565 10563 10563 10563 10561 10559 10558 10557 10555 10553 10551 10549 10547 10544 10541 10536 10531 10525 10519 10514 10507 10501 10495 10489 10487 10481 10471 10465 10458 10453
10616 10613 10611 10609 10607 10604 10601 10598 10596 10594 10592 10589 10585 10582 10579 10576 10572 10569 10567 10566 10564 10563 10560 10558 10557 10558 10557 10557 10557 10554 10552 10551 10550 10548 10547 10545 10543 10542 10538 10535 10532 10528 10522 10517 10513 10508 10501 10497 10492 10489 10485 10481 10475 10469
10616 10614 10612 10610 10607 10604 10601 10598 10595 10592 10589 10587 10584 10580 10577 10574 10571 10567 10565 10563 10560 10559 10557 10554 10552 10550 10549 10549 10550 10549 10547 10547 10547 10544 10543 10542 10539 10537 10534 10532 10529 10528 10525 10521 10516 10511 10507 10504 10500 10496 10494 10490 10486 10483
10614 10613 10611 10609 10606 10603 10600 10597 10593 10588 10584 10582 10578 10575 10572 10569 10565 10562 10560 10558 10556 10553 10551 10548 10546 10543 10541 10541 10539 10539 10539 10538 10538 10537 10537 10537 10535 10533 10532 10530 10526 10524 10524 10521 10518 10515 10512 10508 10504 10501 10499 10497 10497 10493
10610 10608 10607 10606 10604 10601 10598 10594 10591 10586 10583 10579 10575 10571 10566 10562 10558 10555 10551 10549 10546 10544 10542 10540 10538 10536 10534 10531 10532 10531 10527 10527 10527 10527 10526 10526 10527 10524 10520 10520 10519 10518 10517 10517 10515 10514 10511 10510 10507 10504 10501 10499 10498 10497
10608 10605 10604 10602 10600 10598 10595 10592 10588 10584 10580 10577 10572 10568 10563 10558 10555 10552 10548 10545 10543 10538 10535 10531 10528 10527 10525 10523 10523 10523 10521 10518 10516 10516 10516 10516 10518 10515 10510 10510 10510 10509 10510 10510 10509 10509 10508 10507 10506 10504 10502 10501 10499 10497
10605 10603 10601 10599 10597 10593 10593 10588 10584 10580 10576 10572 10569 10566 10563 10558 10553 10549 10546 10542 10539 10535 10531 10528 10526 10523 10518 10515 10515 10515 10514 10512 10510 10507 10506 10506 10505 10505 10503 10501 10501 10501 10499 10500 10500 10498 10499 10500 10501 10500 10499 10498 10498 10497
10601 10599 10598 10596 10596 10594 10591 10586 10581 10578 10576 10572 10568 10565 10561 10556 10551 10547 10544 10540 10536 10533 10530 10527 10523 10520 10517 10514 10512 10510 10509 10507 10504 10502 10498 10496 10495 10494 10491 10490 10489 10488 10488 10487 10488 10489 10488 10488 10489 10492 10492 10491 10490 10491
10597 10595 10594 10592 10591 10591 10588 10586 10582 10580 10577 10572 10569 10565 10561 10556 10551 10546 10542 10538 10535 10532 10528 10525 10522 10519 10517 10514 10512 10509 10507 10504 10501 10497 10493 10489 10486 10482 10480 10478 10475 10472 10470 10469 10471 10473 10474 10475 10477 10477 10479 10480 10480 10480